owner,sensor,date,latitude,longitude,vertical_datum,wind_speed,wind_to_direction,wind_speed_of_gust,qcFlag 
FIT,ioos:station:wmo:SIPF1:1,2013-04-01T00:00:00Z,27.8620,-80.4450,1.0,9.2,161.0,99.0,'11111222,11111222,11144222' 
FIT,ioos:station:wmo:SIPF1:1,2013-04-01T00:15:00Z,27.8620,-80.4450,1.0,8.6,157.0,99.0,'11111222,11111222,11144222' 
FIT,ioos:station:wmo:SIPF1:1,2013-04-01T00:30:00Z,27.8620,-80.4450,1.0,9.0,162.0,99.0,'11111222,11111222,11144222' 
FIT,ioos:station:wmo:SIPF1:1,2013-04-01T00:45:00Z,27.8620,-80.4450,1.0,8.7,166.0,99.0,'11111222,11111222,11144222' 
FIT,ioos:station:wmo:SIPF1:1,2013-04-01T01:00:00Z,27.8620,-80.4450,1.0,8.5,169.0,99.0,'11111222,11111222,11144222' 
FIT,ioos:station:wmo:SIPF1:1,2013-04-01T01:15:00Z,27.8620,-80.4450,1.0,8.4,172.0,99.0,'11111222,11111222,11144222' 
FIT,ioos:station:wmo:SIPF1:1,2013-04-01T01:30:00Z,27.8620,-80.4450,1.0,8.6,172.0,99.0,'11111222,11111222,11144222' 
FIT,ioos:station:wmo:SIPF1:1,2013-04-01T01:45:00Z,27.8620,-80.4450,1.0,8.4,175.0,99.0,'11111222,11111222,11144222' 
FIT,ioos:station:wmo:SIPF1:1,2013-04-01T02:00:00Z,27.8620,-80.4450,1.0,7.7,175.0,99.0,'11111222,11111222,11144222' 
FIT,ioos:station:wmo:SIPF1:1,2013-04-01T02:15:00Z,27.8620,-80.4450,1.0,8.1,177.0,99.0,'11111222,11111222,11144222' 
FIT,ioos:station:wmo:SIPF1:1,2013-04-01T02:30:00Z,27.8620,-80.4450,1.0,6.8,176.0,99.0,'11111222,11111222,11144222' 
FIT,ioos:station:wmo:SIPF1:1,2013-04-01T02:45:00Z,27.8620,-80.4450,1.0,6.3,180.0,99.0,'11111222,11111222,11144222' 
FIT,ioos:station:wmo:SIPF1:1,2013-04-01T03:00:00Z,27.8620,-80.4450,1.0,6.9,182.0,99.0,'11111222,11111222,11144222' 
FIT,ioos:station:wmo:SIPF1:1,2013-04-01T03:15:00Z,27.8620,-80.4450,1.0,6.6,186.0,99.0,'11111222,11111222,11144222' 
FIT,ioos:station:wmo:SIPF1:1,2013-04-01T03:30:00Z,27.8620,-80.4450,1.0,6.5,189.0,99.0,'11111222,11111222,11144222' 
FIT,ioos:station:wmo:SIPF1:1,2013-04-01T03:45:00Z,27.8620,-80.4450,1.0,5.4,194.0,99.0,'11111222,11111222,11144222' 
FIT,ioos:station:wmo:SIPF1:1,2013-04-01T04:00:00Z,27.8620,-80.4450,1.0,5.3,196.0,99.0,'11111222,11111222,11144222' 
FIT,ioos:station:wmo:SIPF1:1,2013-04-01T04:15:00Z,27.8620,-80.4450,1.0,4.9,200.0,99.0,'11111222,11111222,11144222' 
FIT,ioos:station:wmo:SIPF1:1,2013-04-01T04:30:00Z,27.8620,-80.4450,1.0,4.0,207.0,99.0,'11111222,11111222,11144222' 
FIT,ioos:station:wmo:SIPF1:1,2013-04-01T04:45:00Z,27.8620,-80.4450,1.0,3.3,222.0,99.0,'11111222,11111222,11144222' 
FIT,ioos:station:wmo:SIPF1:1,2013-04-01T05:00:00Z,27.8620,-80.4450,1.0,3.2,224.0,99.0,'11111222,11111222,11144222' 
FIT,ioos:station:wmo:SIPF1:1,2013-04-01T05:15:00Z,27.8620,-80.4450,1.0,3.5,231.0,99.0,'11111222,11111222,11144222' 
FIT,ioos:station:wmo:SIPF1:1,2013-04-01T05:30:00Z,27.8620,-80.4450,1.0,3.5,236.0,99.0,'11111222,11111222,11144222' 
FIT,ioos:station:wmo:SIPF1:1,2013-04-01T06:00:00Z,27.8620,-80.4450,1.0,3.0,223.0,99.0,'11111222,11111222,11144222' 
FIT,ioos:station:wmo:SIPF1:1,2013-04-01T06:15:00Z,27.8620,-80.4450,1.0,2.4,229.0,99.0,'11111222,11111222,11144222' 
FIT,ioos:station:wmo:SIPF1:1,2013-04-01T06:30:00Z,27.8620,-80.4450,1.0,2.2,240.0,99.0,'11111222,11111222,11144222' 
FIT,ioos:station:wmo:SIPF1:1,2013-04-01T06:45:00Z,27.8620,-80.4450,1.0,2.5,246.0,99.0,'11111222,11111222,11144222' 
FIT,ioos:station:wmo:SIPF1:1,2013-04-01T07:00:00Z,27.8620,-80.4450,1.0,2.1,242.0,99.0,'11111222,11111222,11144222' 
FIT,ioos:station:wmo:SIPF1:1,2013-04-01T07:15:00Z,27.8620,-80.4450,1.0,2.1,237.0,99.0,'11111222,11111222,11144222' 
FIT,ioos:station:wmo:SIPF1:1,2013-04-01T07:30:00Z,27.8620,-80.4450,1.0,2.2,221.0,99.0,'11111222,11111222,11144222' 
FIT,ioos:station:wmo:SIPF1:1,2013-04-01T07:45:00Z,27.8620,-80.4450,1.0,2.3,212.0,99.0,'11111222,11111222,11144222' 
FIT,ioos:station:wmo:SIPF1:1,2013-04-01T08:00:00Z,27.8620,-80.4450,1.0,2.2,212.0,99.0,'11111222,11111222,11144222' 
FIT,ioos:station:wmo:SIPF1:1,2013-04-01T08:15:00Z,27.8620,-80.4450,1.0,2.2,209.0,99.0,'11111222,11111222,11144222' 
FIT,ioos:station:wmo:SIPF1:1,2013-04-01T08:30:00Z,27.8620,-80.4450,1.0,2.2,205.0,99.0,'11111222,11111222,11144222' 
FIT,ioos:station:wmo:SIPF1:1,2013-04-01T08:45:00Z,27.8620,-80.4450,1.0,2.1,197.0,99.0,'11111222,11111222,11144222' 
FIT,ioos:station:wmo:SIPF1:1,2013-04-01T09:00:00Z,27.8620,-80.4450,1.0,2.1,200.0,99.0,'11111222,11111222,11144222' 
FIT,ioos:station:wmo:SIPF1:1,2013-04-01T09:15:00Z,27.8620,-80.4450,1.0,1.8,199.0,99.0,'11111222,11111222,11144222' 
FIT,ioos:station:wmo:SIPF1:1,2013-04-01T09:30:00Z,27.8620,-80.4450,1.0,2.3,213.0,99.0,'11111222,11111222,11144222' 
FIT,ioos:station:wmo:SIPF1:1,2013-04-01T09:45:00Z,27.8620,-80.4450,1.0,2.2,217.0,99.0,'11111222,11111222,11144222' 
FIT,ioos:station:wmo:SIPF1:1,2013-04-01T10:00:00Z,27.8620,-80.4450,1.0,2.4,230.0,99.0,'11111222,11111222,11144222' 
FIT,ioos:station:wmo:SIPF1:1,2013-04-01T10:15:00Z,27.8620,-80.4450,1.0,2.4,227.0,99.0,'11111222,11111222,11144222' 
FIT,ioos:station:wmo:SIPF1:1,2013-04-01T10:30:00Z,27.8620,-80.4450,1.0,2.2,229.0,99.0,'11111222,11111222,11144222' 
FIT,ioos:station:wmo:SIPF1:1,2013-04-01T10:45:00Z,27.8620,-80.4450,1.0,2.7,222.0,99.0,'11111222,11111222,11144222' 
FIT,ioos:station:wmo:SIPF1:1,2013-04-01T11:00:00Z,27.8620,-80.4450,1.0,2.8,229.0,99.0,'11111222,11111222,11144222' 
FIT,ioos:station:wmo:SIPF1:1,2013-04-01T11:15:00Z,27.8620,-80.4450,1.0,2.8,235.0,99.0,'11111222,11111222,11144222' 
FIT,ioos:station:wmo:SIPF1:1,2013-04-01T11:30:00Z,27.8620,-80.4450,1.0,2.8,235.0,99.0,'11111222,11111222,11144222' 
FIT,ioos:station:wmo:SIPF1:1,2013-04-01T11:45:00Z,27.8620,-80.4450,1.0,3.0,240.0,99.0,'11111222,11111222,11144222' 
FIT,ioos:station:wmo:SIPF1:1,2013-04-01T12:00:00Z,27.8620,-80.4450,1.0,2.8,230.0,99.0,'11111222,11111222,11144222' 
FIT,ioos:station:wmo:SIPF1:1,2013-04-01T12:15:00Z,27.8620,-80.4450,1.0,3.1,219.0,99.0,'11111222,11111222,11144222' 
FIT,ioos:station:wmo:SIPF1:1,2013-04-01T12:30:00Z,27.8620,-80.4450,1.0,3.8,227.0,99.0,'11111222,11111222,11144222' 
FIT,ioos:station:wmo:SIPF1:1,2013-04-01T12:45:00Z,27.8620,-80.4450,1.0,3.7,231.0,99.0,'11111222,11111222,11144222' 
FIT,ioos:station:wmo:SIPF1:1,2013-04-01T13:00:00Z,27.8620,-80.4450,1.0,3.5,223.0,99.0,'11111222,11111222,11144222' 
FIT,ioos:station:wmo:SIPF1:1,2013-04-01T13:15:00Z,27.8620,-80.4450,1.0,3.5,233.0,99.0,'11111222,11111222,11144222' 
FIT,ioos:station:wmo:SIPF1:1,2013-04-01T13:30:00Z,27.8620,-80.4450,1.0,3.6,241.0,99.0,'11111222,11111222,11144222' 
FIT,ioos:station:wmo:SIPF1:1,2013-04-01T13:45:00Z,27.8620,-80.4450,1.0,4.9,240.0,99.0,'11111222,11111222,11144222' 
FIT,ioos:station:wmo:SIPF1:1,2013-04-01T14:00:00Z,27.8620,-80.4450,1.0,5.7,235.0,99.0,'11111222,11111222,11144222' 
FIT,ioos:station:wmo:SIPF1:1,2013-04-01T14:15:00Z,27.8620,-80.4450,1.0,5.4,243.0,99.0,'11111222,11111222,11144222' 
FIT,ioos:station:wmo:SIPF1:1,2013-04-01T14:30:00Z,27.8620,-80.4450,1.0,6.0,241.0,99.0,'11111222,11111222,11144222' 
FIT,ioos:station:wmo:SIPF1:1,2013-04-01T14:45:00Z,27.8620,-80.4450,1.0,6.1,237.0,99.0,'11111222,11111222,11144222' 
FIT,ioos:station:wmo:SIPF1:1,2013-04-01T15:00:00Z,27.8620,-80.4450,1.0,5.6,237.0,99.0,'11111222,11111222,11144222' 
FIT,ioos:station:wmo:SIPF1:1,2013-04-01T15:15:00Z,27.8620,-80.4450,1.0,5.5,237.0,99.0,'11111222,11111222,11144222' 
FIT,ioos:station:wmo:SIPF1:1,2013-04-01T15:30:00Z,27.8620,-80.4450,1.0,5.9,240.0,99.0,'11111222,11111222,11144222' 
FIT,ioos:station:wmo:SIPF1:1,2013-04-01T15:45:00Z,27.8620,-80.4450,1.0,5.6,233.0,99.0,'11111222,11111222,11144222' 
FIT,ioos:station:wmo:SIPF1:1,2013-04-01T16:00:00Z,27.8620,-80.4450,1.0,6.1,230.0,99.0,'11111222,11111222,11144222' 
FIT,ioos:station:wmo:SIPF1:1,2013-04-01T16:15:00Z,27.8620,-80.4450,1.0,6.7,233.0,99.0,'11111222,11111222,11144222' 
FIT,ioos:station:wmo:SIPF1:1,2013-04-01T16:30:00Z,27.8620,-80.4450,1.0,6.4,240.0,99.0,'11111222,11111222,11144222' 
FIT,ioos:station:wmo:SIPF1:1,2013-04-01T16:45:00Z,27.8620,-80.4450,1.0,5.9,236.0,99.0,'11111222,11111222,11144222' 
FIT,ioos:station:wmo:SIPF1:1,2013-04-01T17:00:00Z,27.8620,-80.4450,1.0,6.3,235.0,99.0,'11111222,11111222,11144222' 
FIT,ioos:station:wmo:SIPF1:1,2013-04-01T17:15:00Z,27.8620,-80.4450,1.0,5.5,233.0,99.0,'11111222,11111222,11144222' 
FIT,ioos:station:wmo:SIPF1:1,2013-04-01T17:30:00Z,27.8620,-80.4450,1.0,5.7,237.0,99.0,'11111222,11111222,11144222' 
FIT,ioos:station:wmo:SIPF1:1,2013-04-01T17:45:00Z,27.8620,-80.4450,1.0,5.3,236.0,99.0,'11111222,11111222,11144222' 
FIT,ioos:station:wmo:SIPF1:1,2013-04-01T18:00:00Z,27.8620,-80.4450,1.0,5.8,257.0,99.0,'11111222,11111222,11144222' 
FIT,ioos:station:wmo:SIPF1:1,2013-04-01T18:15:00Z,27.8620,-80.4450,1.0,6.7,257.0,99.0,'11111222,11111222,11144222' 
FIT,ioos:station:wmo:SIPF1:1,2013-04-01T18:30:00Z,27.8620,-80.4450,1.0,6.5,243.0,99.0,'11111222,11111222,11144222' 
FIT,ioos:station:wmo:SIPF1:1,2013-04-01T18:45:00Z,27.8620,-80.4450,1.0,6.9,249.0,99.0,'11111222,11111222,11144222' 
FIT,ioos:station:wmo:SIPF1:1,2013-04-01T19:00:00Z,27.8620,-80.4450,1.0,6.0,247.0,99.0,'11111222,11111222,11144222' 
FIT,ioos:station:wmo:SIPF1:1,2013-04-01T19:15:00Z,27.8620,-80.4450,1.0,5.4,241.0,99.0,'11111222,11111222,11144222' 
FIT,ioos:station:wmo:SIPF1:1,2013-04-01T19:30:00Z,27.8620,-80.4450,1.0,5.2,252.0,99.0,'11111222,11111222,11144222' 
FIT,ioos:station:wmo:SIPF1:1,2013-04-01T19:45:00Z,27.8620,-80.4450,1.0,5.8,251.0,99.0,'11111222,11111222,11144222' 
FIT,ioos:station:wmo:SIPF1:1,2013-04-01T20:00:00Z,27.8620,-80.4450,1.0,5.0,249.0,99.0,'11111222,11111222,11144222' 
FIT,ioos:station:wmo:SIPF1:1,2013-04-01T20:15:00Z,27.8620,-80.4450,1.0,4.8,264.0,99.0,'11111222,11111222,11144222' 
FIT,ioos:station:wmo:SIPF1:1,2013-04-01T20:30:00Z,27.8620,-80.4450,1.0,5.3,261.0,99.0,'11111222,11111222,11144222' 
FIT,ioos:station:wmo:SIPF1:1,2013-04-01T20:45:00Z,27.8620,-80.4450,1.0,3.4,269.0,99.0,'11111222,11111222,11144222' 
FIT,ioos:station:wmo:SIPF1:1,2013-04-01T21:00:00Z,27.8620,-80.4450,1.0,5.3,274.0,99.0,'11111222,11111222,11144222' 
FIT,ioos:station:wmo:SIPF1:1,2013-04-01T21:30:00Z,27.8620,-80.4450,1.0,6.3,266.0,99.0,'11111222,11111222,11144222' 
FIT,ioos:station:wmo:SIPF1:1,2013-04-01T21:45:00Z,27.8620,-80.4450,1.0,6.1,281.0,99.0,'11111222,11111222,11144222' 
FIT,ioos:station:wmo:SIPF1:1,2013-04-01T22:00:00Z,27.8620,-80.4450,1.0,6.8,278.0,99.0,'11111222,11111222,11144222' 
FIT,ioos:station:wmo:SIPF1:1,2013-04-01T22:15:00Z,27.8620,-80.4450,1.0,5.9,279.0,99.0,'11111222,11111222,11144222' 
FIT,ioos:station:wmo:SIPF1:1,2013-04-01T22:30:00Z,27.8620,-80.4450,1.0,5.9,282.0,99.0,'11111222,11111222,11144222' 
FIT,ioos:station:wmo:SIPF1:1,2013-04-01T22:45:00Z,27.8620,-80.4450,1.0,6.2,286.0,99.0,'11111222,11111222,11144222' 
FIT,ioos:station:wmo:SIPF1:1,2013-04-01T23:00:00Z,27.8620,-80.4450,1.0,5.2,283.0,99.0,'11111222,11111222,11144222' 
FIT,ioos:station:wmo:SIPF1:1,2013-04-01T23:15:00Z,27.8620,-80.4450,1.0,5.3,276.0,99.0,'11111222,11111222,11144222' 
FIT,ioos:station:wmo:SIPF1:1,2013-04-01T23:30:00Z,27.8620,-80.4450,1.0,5.2,283.0,99.0,'11111222,11111222,11144222' 
FIT,ioos:station:wmo:SIPF1:1,2013-04-01T23:45:00Z,27.8620,-80.4450,1.0,3.4,299.0,99.0,'11111222,11111222,11144222' 
FIT,ioos:station:wmo:SIPF1:1,2013-04-02T00:00:00Z,27.8620,-80.4450,1.0,2.5,299.0,99.0,'11111222,11111222,11144222' 
FIT,ioos:station:wmo:SIPF1:1,2013-04-02T00:15:00Z,27.8620,-80.4450,1.0,2.7,308.0,99.0,'11111222,11111222,11144222' 
FIT,ioos:station:wmo:SIPF1:1,2013-04-02T00:30:00Z,27.8620,-80.4450,1.0,3.3,307.0,99.0,'11111222,11111222,11144222' 
FIT,ioos:station:wmo:SIPF1:1,2013-04-02T00:45:00Z,27.8620,-80.4450,1.0,2.5,298.0,99.0,'11111222,11111222,11144222' 
FIT,ioos:station:wmo:SIPF1:1,2013-04-02T01:00:00Z,27.8620,-80.4450,1.0,2.8,288.0,99.0,'11111222,11111222,11144222' 
FIT,ioos:station:wmo:SIPF1:1,2013-04-02T01:15:00Z,27.8620,-80.4450,1.0,2.4,281.0,99.0,'11111222,11111222,11144222' 
FIT,ioos:station:wmo:SIPF1:1,2013-04-02T01:30:00Z,27.8620,-80.4450,1.0,2.1,285.0,99.0,'11111222,11111222,11144222' 
FIT,ioos:station:wmo:SIPF1:1,2013-04-02T01:45:00Z,27.8620,-80.4450,1.0,2.1,282.0,99.0,'11111222,11111222,11144222' 
FIT,ioos:station:wmo:SIPF1:1,2013-04-02T02:00:00Z,27.8620,-80.4450,1.0,2.6,288.0,99.0,'11111222,11111222,11144222' 
FIT,ioos:station:wmo:SIPF1:1,2013-04-02T02:15:00Z,27.8620,-80.4450,1.0,2.6,283.0,99.0,'11111222,11111222,11144222' 
FIT,ioos:station:wmo:SIPF1:1,2013-04-02T02:30:00Z,27.8620,-80.4450,1.0,2.9,284.0,99.0,'11111222,11111222,11144222' 
FIT,ioos:station:wmo:SIPF1:1,2013-04-02T02:45:00Z,27.8620,-80.4450,1.0,2.8,278.0,99.0,'11111222,11111222,11144222' 
FIT,ioos:station:wmo:SIPF1:1,2013-04-02T03:00:00Z,27.8620,-80.4450,1.0,2.8,276.0,99.0,'11111222,11111222,11144222' 
FIT,ioos:station:wmo:SIPF1:1,2013-04-02T03:15:00Z,27.8620,-80.4450,1.0,2.9,271.0,99.0,'11111222,11111222,11144222' 
FIT,ioos:station:wmo:SIPF1:1,2013-04-02T03:30:00Z,27.8620,-80.4450,1.0,2.8,266.0,99.0,'11111222,11111222,11144222' 
FIT,ioos:station:wmo:SIPF1:1,2013-04-02T03:45:00Z,27.8620,-80.4450,1.0,2.8,273.0,99.0,'11111222,11111222,11144222' 
FIT,ioos:station:wmo:SIPF1:1,2013-04-02T04:00:00Z,27.8620,-80.4450,1.0,2.8,276.0,99.0,'11111222,11111222,11144222' 
FIT,ioos:station:wmo:SIPF1:1,2013-04-02T04:15:00Z,27.8620,-80.4450,1.0,2.7,258.0,99.0,'11111222,11111222,11144222' 
FIT,ioos:station:wmo:SIPF1:1,2013-04-02T04:30:00Z,27.8620,-80.4450,1.0,3.0,247.0,99.0,'11111222,11111222,11144222' 
FIT,ioos:station:wmo:SIPF1:1,2013-04-02T04:45:00Z,27.8620,-80.4450,1.0,3.5,252.0,99.0,'11111222,11111222,11144222' 
FIT,ioos:station:wmo:SIPF1:1,2013-04-02T05:00:00Z,27.8620,-80.4450,1.0,2.7,261.0,99.0,'11111222,11111222,11144222' 
FIT,ioos:station:wmo:SIPF1:1,2013-04-02T05:15:00Z,27.8620,-80.4450,1.0,2.7,260.0,99.0,'11111222,11111222,11144222' 
FIT,ioos:station:wmo:SIPF1:1,2013-04-02T05:30:00Z,27.8620,-80.4450,1.0,2.8,266.0,99.0,'11111222,11111222,11144222' 
FIT,ioos:station:wmo:SIPF1:1,2013-04-02T05:45:00Z,27.8620,-80.4450,1.0,3.2,253.0,99.0,'11111222,11111222,11144222' 
FIT,ioos:station:wmo:SIPF1:1,2013-04-02T06:00:00Z,27.8620,-80.4450,1.0,3.4,258.0,99.0,'11111222,11111222,11144222' 
FIT,ioos:station:wmo:SIPF1:1,2013-04-02T06:15:00Z,27.8620,-80.4450,1.0,3.6,266.0,99.0,'11111222,11111222,11144222' 
FIT,ioos:station:wmo:SIPF1:1,2013-04-02T06:30:00Z,27.8620,-80.4450,1.0,3.4,270.0,99.0,'11111222,11111222,11144222' 
FIT,ioos:station:wmo:SIPF1:1,2013-04-02T06:45:00Z,27.8620,-80.4450,1.0,3.3,271.0,99.0,'11111222,11111222,11144222' 
FIT,ioos:station:wmo:SIPF1:1,2013-04-02T07:00:00Z,27.8620,-80.4450,1.0,3.3,273.0,99.0,'11111222,11111222,11144222' 
FIT,ioos:station:wmo:SIPF1:1,2013-04-02T07:15:00Z,27.8620,-80.4450,1.0,3.2,269.0,99.0,'11111222,11111222,11144222' 
FIT,ioos:station:wmo:SIPF1:1,2013-04-02T07:30:00Z,27.8620,-80.4450,1.0,3.1,272.0,99.0,'11111222,11111222,11144222' 
FIT,ioos:station:wmo:SIPF1:1,2013-04-02T07:45:00Z,27.8620,-80.4450,1.0,3.2,274.0,99.0,'11111222,11111222,11144222' 
FIT,ioos:station:wmo:SIPF1:1,2013-04-02T08:00:00Z,27.8620,-80.4450,1.0,3.1,282.0,99.0,'11111222,11111222,11144222' 
FIT,ioos:station:wmo:SIPF1:1,2013-04-02T08:15:00Z,27.8620,-80.4450,1.0,3.9,287.0,99.0,'11111222,11111222,11144222' 
FIT,ioos:station:wmo:SIPF1:1,2013-04-02T08:30:00Z,27.8620,-80.4450,1.0,4.0,284.0,99.0,'11111222,11111222,11144222' 
FIT,ioos:station:wmo:SIPF1:1,2013-04-02T08:45:00Z,27.8620,-80.4450,1.0,4.2,290.0,99.0,'11111222,11111222,11144222' 
FIT,ioos:station:wmo:SIPF1:1,2013-04-02T09:00:00Z,27.8620,-80.4450,1.0,4.7,300.0,99.0,'11111222,11111222,11144222' 
FIT,ioos:station:wmo:SIPF1:1,2013-04-02T09:15:00Z,27.8620,-80.4450,1.0,4.4,300.0,99.0,'11111222,11111222,11144222' 
FIT,ioos:station:wmo:SIPF1:1,2013-04-02T09:30:00Z,27.8620,-80.4450,1.0,4.7,302.0,99.0,'11111222,11111222,11144222' 
FIT,ioos:station:wmo:SIPF1:1,2013-04-02T09:45:00Z,27.8620,-80.4450,1.0,4.9,305.0,99.0,'11111222,11111222,11144222' 
FIT,ioos:station:wmo:SIPF1:1,2013-04-02T10:00:00Z,27.8620,-80.4450,1.0,5.1,306.0,99.0,'11111222,11111222,11144222' 
FIT,ioos:station:wmo:SIPF1:1,2013-04-02T10:15:00Z,27.8620,-80.4450,1.0,4.9,309.0,99.0,'11111222,11111222,11144222' 
FIT,ioos:station:wmo:SIPF1:1,2013-04-02T10:30:00Z,27.8620,-80.4450,1.0,4.9,310.0,99.0,'11111222,11111222,11144222' 
FIT,ioos:station:wmo:SIPF1:1,2013-04-02T10:45:00Z,27.8620,-80.4450,1.0,5.0,310.0,99.0,'11111222,11111222,11144222' 
FIT,ioos:station:wmo:SIPF1:1,2013-04-02T11:00:00Z,27.8620,-80.4450,1.0,5.2,310.0,99.0,'11111222,11111222,11144222' 
FIT,ioos:station:wmo:SIPF1:1,2013-04-02T11:15:00Z,27.8620,-80.4450,1.0,5.0,311.0,99.0,'11111222,11111222,11144222' 
FIT,ioos:station:wmo:SIPF1:1,2013-04-02T11:30:00Z,27.8620,-80.4450,1.0,5.5,309.0,99.0,'11111222,11111222,11144222' 
FIT,ioos:station:wmo:SIPF1:1,2013-04-02T11:45:00Z,27.8620,-80.4450,1.0,4.8,318.0,99.0,'11111222,11111222,11144222' 
FIT,ioos:station:wmo:SIPF1:1,2013-04-02T12:00:00Z,27.8620,-80.4450,1.0,4.2,317.0,99.0,'11111222,11111222,11144222' 
FIT,ioos:station:wmo:SIPF1:1,2013-04-02T12:15:00Z,27.8620,-80.4450,1.0,4.7,322.0,99.0,'11111222,11111222,11144222' 
FIT,ioos:station:wmo:SIPF1:1,2013-04-02T12:30:00Z,27.8620,-80.4450,1.0,4.7,322.0,99.0,'11111222,11111222,11144222' 
FIT,ioos:station:wmo:SIPF1:1,2013-04-02T12:45:00Z,27.8620,-80.4450,1.0,4.8,319.0,99.0,'11111222,11111222,11144222' 
FIT,ioos:station:wmo:SIPF1:1,2013-04-02T13:00:00Z,27.8620,-80.4450,1.0,4.6,314.0,99.0,'11111222,11111222,11144222' 
FIT,ioos:station:wmo:SIPF1:1,2013-04-02T13:15:00Z,27.8620,-80.4450,1.0,4.1,318.0,99.0,'11111222,11111222,11144222' 
FIT,ioos:station:wmo:SIPF1:1,2013-04-02T13:30:00Z,27.8620,-80.4450,1.0,3.9,317.0,99.0,'11111222,11111222,11144222' 
FIT,ioos:station:wmo:SIPF1:1,2013-04-02T13:45:00Z,27.8620,-80.4450,1.0,4.1,329.0,99.0,'11111222,11111222,11144222' 
FIT,ioos:station:wmo:SIPF1:1,2013-04-02T14:00:00Z,27.8620,-80.4450,1.0,3.5,337.0,99.0,'11111222,11111222,11144222' 
FIT,ioos:station:wmo:SIPF1:1,2013-04-02T14:15:00Z,27.8620,-80.4450,1.0,3.7,340.0,99.0,'11111222,11111222,11144222' 
FIT,ioos:station:wmo:SIPF1:1,2013-04-02T14:30:00Z,27.8620,-80.4450,1.0,4.6,345.0,99.0,'11111222,11111222,11144222' 
FIT,ioos:station:wmo:SIPF1:1,2013-04-02T14:45:00Z,27.8620,-80.4450,1.0,5.1,343.0,99.0,'11111222,11111222,11144222' 
FIT,ioos:station:wmo:SIPF1:1,2013-04-02T15:00:00Z,27.8620,-80.4450,1.0,5.3,345.0,99.0,'11111222,11111222,11144222' 
FIT,ioos:station:wmo:SIPF1:1,2013-04-02T15:15:00Z,27.8620,-80.4450,1.0,5.5,347.0,99.0,'11111222,11111222,11144222' 
FIT,ioos:station:wmo:SIPF1:1,2013-04-02T15:30:00Z,27.8620,-80.4450,1.0,5.2,356.0,99.0,'11111222,11111222,11144222' 
FIT,ioos:station:wmo:SIPF1:1,2013-04-02T15:45:00Z,27.8620,-80.4450,1.0,5.1,358.0,99.0,'11111222,11111222,11144222' 
FIT,ioos:station:wmo:SIPF1:1,2013-04-02T16:00:00Z,27.8620,-80.4450,1.0,5.4,360.0,99.0,'11111222,11144222,11144222' 
FIT,ioos:station:wmo:SIPF1:1,2013-04-02T16:15:00Z,27.8620,-80.4450,1.0,5.4,3.0,99.0,'11111222,11111222,11144222' 
FIT,ioos:station:wmo:SIPF1:1,2013-04-02T16:30:00Z,27.8620,-80.4450,1.0,4.7,5.0,99.0,'11111222,11111222,11144222' 
FIT,ioos:station:wmo:SIPF1:1,2013-04-02T16:45:00Z,27.8620,-80.4450,1.0,4.5,6.0,99.0,'11111222,11111222,11144222' 
FIT,ioos:station:wmo:SIPF1:1,2013-04-02T17:00:00Z,27.8620,-80.4450,1.0,5.1,16.0,99.0,'11111222,11111222,11144222' 
FIT,ioos:station:wmo:SIPF1:1,2013-04-02T17:15:00Z,27.8620,-80.4450,1.0,5.3,16.0,99.0,'11111222,11111222,11144222' 
FIT,ioos:station:wmo:SIPF1:1,2013-04-02T17:30:00Z,27.8620,-80.4450,1.0,5.2,16.0,99.0,'11111222,11111222,11144222' 
FIT,ioos:station:wmo:SIPF1:1,2013-04-02T17:45:00Z,27.8620,-80.4450,1.0,5.1,13.0,99.0,'11111222,11111222,11144222' 
FIT,ioos:station:wmo:SIPF1:1,2013-04-02T18:00:00Z,27.8620,-80.4450,1.0,5.4,10.0,99.0,'11111222,11111222,11144222' 
FIT,ioos:station:wmo:SIPF1:1,2013-04-02T18:15:00Z,27.8620,-80.4450,1.0,5.6,10.0,99.0,'11111222,11111222,11144222' 
FIT,ioos:station:wmo:SIPF1:1,2013-04-02T18:30:00Z,27.8620,-80.4450,1.0,5.9,11.0,99.0,'11111222,11111222,11144222' 
FIT,ioos:station:wmo:SIPF1:1,2013-04-02T18:45:00Z,27.8620,-80.4450,1.0,5.7,11.0,99.0,'11111222,11111222,11144222' 
FIT,ioos:station:wmo:SIPF1:1,2013-04-02T19:00:00Z,27.8620,-80.4450,1.0,5.4,14.0,99.0,'11111222,11111222,11144222' 
FIT,ioos:station:wmo:SIPF1:1,2013-04-02T19:15:00Z,27.8620,-80.4450,1.0,5.4,16.0,99.0,'11111222,11111222,11144222' 
FIT,ioos:station:wmo:SIPF1:1,2013-04-02T19:30:00Z,27.8620,-80.4450,1.0,5.0,17.0,99.0,'11111222,11111222,11144222' 
FIT,ioos:station:wmo:SIPF1:1,2013-04-02T19:45:00Z,27.8620,-80.4450,1.0,4.6,21.0,99.0,'11111222,11111222,11144222' 
FIT,ioos:station:wmo:SIPF1:1,2013-04-02T20:00:00Z,27.8620,-80.4450,1.0,4.2,23.0,99.0,'11111222,11111222,11144222' 
FIT,ioos:station:wmo:SIPF1:1,2013-04-02T20:15:00Z,27.8620,-80.4450,1.0,4.1,29.0,99.0,'11111222,11111222,11144222' 
FIT,ioos:station:wmo:SIPF1:1,2013-04-02T20:30:00Z,27.8620,-80.4450,1.0,4.2,29.0,99.0,'11111222,11111222,11144222' 
FIT,ioos:station:wmo:SIPF1:1,2013-04-02T20:45:00Z,27.8620,-80.4450,1.0,4.0,31.0,99.0,'11111222,11111222,11144222' 
FIT,ioos:station:wmo:SIPF1:1,2013-04-02T21:00:00Z,27.8620,-80.4450,1.0,4.2,29.0,99.0,'11111222,11111222,11144222' 
FIT,ioos:station:wmo:SIPF1:1,2013-04-02T21:15:00Z,27.8620,-80.4450,1.0,3.9,28.0,99.0,'11111222,11111222,11144222' 
FIT,ioos:station:wmo:SIPF1:1,2013-04-02T21:30:00Z,27.8620,-80.4450,1.0,4.0,27.0,99.0,'11111222,11111222,11144222' 
FIT,ioos:station:wmo:SIPF1:1,2013-04-02T21:45:00Z,27.8620,-80.4450,1.0,4.1,22.0,99.0,'11111222,11111222,11144222' 
FIT,ioos:station:wmo:SIPF1:1,2013-04-02T22:00:00Z,27.8620,-80.4450,1.0,4.0,20.0,99.0,'11111222,11111222,11144222' 
FIT,ioos:station:wmo:SIPF1:1,2013-04-02T22:15:00Z,27.8620,-80.4450,1.0,3.9,18.0,99.0,'11111222,11111222,11144222' 
FIT,ioos:station:wmo:SIPF1:1,2013-04-02T22:30:00Z,27.8620,-80.4450,1.0,4.0,19.0,99.0,'11111222,11111222,11144222' 
FIT,ioos:station:wmo:SIPF1:1,2013-04-02T22:45:00Z,27.8620,-80.4450,1.0,4.0,19.0,99.0,'11111222,11111222,11144222' 
FIT,ioos:station:wmo:SIPF1:1,2013-04-02T23:00:00Z,27.8620,-80.4450,1.0,3.7,22.0,99.0,'11111222,11111222,11144222' 
FIT,ioos:station:wmo:SIPF1:1,2013-04-02T23:15:00Z,27.8620,-80.4450,1.0,3.7,23.0,99.0,'11111222,11111222,11144222' 
FIT,ioos:station:wmo:SIPF1:1,2013-04-02T23:30:00Z,27.8620,-80.4450,1.0,3.6,25.0,99.0,'11111222,11111222,11144222' 
FIT,ioos:station:wmo:SIPF1:1,2013-04-02T23:45:00Z,27.8620,-80.4450,1.0,3.0,33.0,99.0,'11111222,11111222,11144222' 
FIT,ioos:station:wmo:SIPF1:1,2013-04-03T00:00:00Z,27.8620,-80.4450,1.0,3.2,40.0,99.0,'11111222,11111222,11144222' 
FIT,ioos:station:wmo:SIPF1:1,2013-04-03T00:15:00Z,27.8620,-80.4450,1.0,3.7,42.0,99.0,'11111222,11111222,11144222' 
FIT,ioos:station:wmo:SIPF1:1,2013-04-03T00:30:00Z,27.8620,-80.4450,1.0,3.8,51.0,99.0,'11111222,11111222,11144222' 
FIT,ioos:station:wmo:SIPF1:1,2013-04-03T00:45:00Z,27.8620,-80.4450,1.0,4.2,60.0,99.0,'11111222,11111222,11144222' 
FIT,ioos:station:wmo:SIPF1:1,2013-04-03T01:00:00Z,27.8620,-80.4450,1.0,4.4,65.0,99.0,'11111222,11111222,11144222' 
FIT,ioos:station:wmo:SIPF1:1,2013-04-03T01:15:00Z,27.8620,-80.4450,1.0,4.3,69.0,99.0,'11111222,11111222,11144222' 
FIT,ioos:station:wmo:SIPF1:1,2013-04-03T01:30:00Z,27.8620,-80.4450,1.0,4.0,69.0,99.0,'11111222,11111222,11144222' 
FIT,ioos:station:wmo:SIPF1:1,2013-04-03T01:45:00Z,27.8620,-80.4450,1.0,4.4,69.0,99.0,'11111222,11111222,11144222' 
FIT,ioos:station:wmo:SIPF1:1,2013-04-03T02:00:00Z,27.8620,-80.4450,1.0,4.1,68.0,99.0,'11111222,11111222,11144222' 
FIT,ioos:station:wmo:SIPF1:1,2013-04-03T02:15:00Z,27.8620,-80.4450,1.0,4.2,74.0,99.0,'11111222,11111222,11144222' 
FIT,ioos:station:wmo:SIPF1:1,2013-04-03T02:30:00Z,27.8620,-80.4450,1.0,4.2,81.0,99.0,'11111222,11111222,11144222' 
FIT,ioos:station:wmo:SIPF1:1,2013-04-03T02:45:00Z,27.8620,-80.4450,1.0,4.6,83.0,99.0,'11111222,11111222,11144222' 
FIT,ioos:station:wmo:SIPF1:1,2013-04-03T03:00:00Z,27.8620,-80.4450,1.0,4.8,82.0,99.0,'11111222,11111222,11144222' 
FIT,ioos:station:wmo:SIPF1:1,2013-04-03T03:15:00Z,27.8620,-80.4450,1.0,4.8,87.0,99.0,'11111222,11111222,11144222' 
FIT,ioos:station:wmo:SIPF1:1,2013-04-03T03:30:00Z,27.8620,-80.4450,1.0,5.1,89.0,99.0,'11111222,11111222,11144222' 
FIT,ioos:station:wmo:SIPF1:1,2013-04-03T03:45:00Z,27.8620,-80.4450,1.0,5.0,89.0,99.0,'11111222,11111222,11144222' 